Time,TemperatureF,DewpointF,PressureIn,WindDirection,WindDirectionDegrees,WindSpeedMPH,WindSpeedGustMPH,Humidity,HourlyPrecipIn,Conditions,Clouds,dailyrainin,SoftwareType,DateUTC
2013-09-18 00:58:00,48.2,39.6,30.42,SE,126,2.0,2.0,72,0.00,,,0.00,Wunderground v.1.15,2013-09-18 04:58:00,
2013-09-18 01:28:00,47.4,39.9,30.42,SE,126,1.0,4.0,75,0.00,,,0.00,Wunderground v.1.15,2013-09-18 05:28:00,
2013-09-18 02:57:00,45.7,39.9,30.40,SE,126,0.0,4.0,80,0.00,,,0.00,Wunderground v.1.15,2013-09-18 06:57:00,
2013-09-18 03:47:00,44.8,39.6,30.40,SE,126,0.0,4.0,82,0.00,,,0.00,Wunderground v.1.15,2013-09-18 07:47:00,
2013-09-18 04:27:00,45.2,39.7,30.39,SE,126,0.0,0.0,81,0.00,,,0.00,Wunderground v.1.15,2013-09-18 08:27:00,
2013-09-18 04:42:00,44.8,39.6,30.39,SE,126,0.0,0.0,82,0.00,,,0.00,Wunderground v.1.15,2013-09-18 08:42:00,
2013-09-18 04:52:00,44.2,39.7,30.39,SE,126,0.0,0.0,84,0.00,,,0.00,Wunderground v.1.15,2013-09-18 08:52:00,
2013-09-18 05:12:00,43.5,40.2,30.39,SE,126,2.0,2.0,88,0.00,,,0.00,Wunderground v.1.15,2013-09-18 09:12:00,
2013-09-18 05:47:00,43.3,40.3,30.39,SE,126,0.0,3.0,89,0.00,,,0.00,Wunderground v.1.15,2013-09-18 09:47:00,
2013-09-18 06:17:00,43.9,40.0,30.40,SE,126,0.0,3.0,86,0.00,,,0.00,Wunderground v.1.15,2013-09-18 10:17:00,
2013-09-18 07:37:00,42.8,41.2,30.42,SE,126,0.0,4.0,94,0.00,,,0.00,Wunderground v.1.15,2013-09-18 11:37:00,
2013-09-18 08:47:00,47.3,43.6,30.41,SE,126,1.0,1.0,87,0.00,,,0.00,Wunderground v.1.15,2013-09-18 12:47:00,
2013-09-18 09:07:00,49.4,43.5,30.41,SE,126,3.0,5.0,80,0.00,,,0.00,Wunderground v.1.15,2013-09-18 13:07:00,
2013-09-18 09:17:00,49.6,43.0,30.41,SE,126,3.0,5.0,78,0.00,,,0.00,Wunderground v.1.15,2013-09-18 13:17:00,
2013-09-18 10:12:00,51.0,43.7,30.41,SE,126,1.0,5.0,76,0.00,,,0.00,Wunderground v.1.15,2013-09-18 14:12:00,
2013-09-18 10:38:00,54.5,44.9,30.40,SE,126,2.0,6.0,70,0.00,,,0.00,Wunderground v.1.15,2013-09-18 14:38:00,
2013-09-18 11:23:00,57.2,45.9,30.38,SE,126,2.0,2.0,66,0.00,,,0.00,Wunderground v.1.15,2013-09-18 15:23:00,
2013-09-18 11:52:00,56.3,46.3,30.39,SE,126,2.0,7.0,69,0.00,,,0.00,Wunderground v.1.15,2013-09-18 15:52:00,
2013-09-18 21:33:00,55.9,50.5,30.28,ESE,117,1.0,1.0,82,0.00,,,0.00,Wunderground v.1.15,2013-09-19 01:33:00,
2013-09-18 22:08:00,55.7,49.6,30.28,ESE,117,1.0,1.0,80,0.00,,,0.00,Wunderground v.1.15,2013-09-19 02:08:00,
2013-09-18 23:33:00,53.1,49.9,30.28,East,98,1.0,1.0,89,0.00,,,0.00,Wunderground v.1.15,2013-09-19 03:33:00,